sat.trackr.live / text

‹ back to catalog

STARLINK-5126

NORAD 54012 · 2022-125BA

PAYLOAD ACTIVE UNKNOWN

§ Identity

Operator
Country
US
Launch date
2022-10-05
Launch site
AFWTR
Launch vehicle
Mass (kg)
RCS (m²)

Purposes: comms

External: N2YO · Heavens-Above · Gunter

§ Orbital elements

Epoch: 2026-05-25T04:33:54.269280Z

Period
95.44 min
Inclination
53.2149°
Eccentricity
0.0001183
Mean motion
15.08839376 rev/d
Perigee alt
538.9 km
Apogee alt
540.6 km
Semi-major
6,917.9 km
B*
6.4941e-5
RAAN
220.5725°
Arg perigee
86.1920°
Mean anomaly
273.9207°
Rev number
20,115

§ Raw data

STARLINK-51261 54012U 22125BA  26145.19021145  .00000746  00000+0  64941-4 0  99992 54012  53.2149 220.5725 0001183  86.1920 273.9207 15.08839376201159

JSON: /api/v1/satellites/54012 · /tle

For live sub-satellite position, see the globe view (requires WebGL).

§ Visibility from observer

Set your observer location to see the next 7 days of passes ≥ 10°. The values pass through the URL so the page stays shareable.

No JS? Fill the form by hand. The geolocation button needs JavaScript.